DW3735 Weather Reports


time (UTC)temp
F
wind
direction
speed
knots
gust
knots
rain 1hr
in
rain 24hr
in
rain mn
in
humidity
%
barometer
mb
20260507060017 48 270 0.9 2.6 0.00 0.00 0.00 47 1006.0
20260507055037 48 270 0.9 2.6 0.00 0.00 0.00 48 1006.1
20260507054016 48 0.0 0.9 0.00 0.00 0.00 50 1006.1
20260507053017 48 0.0 0.0 0.00 0.00 0.00 52 1006.1
20260507052016 48 0.0 0.0 0.00 0.00 0.00 50 1006.1
20260507051017 49 0.0 0.0 0.00 0.00 0.00 49 1006.2
20260507050057 49 0.0 0.0 0.00 0.00 0.00 51 1006.2
20260507045016 49 0.0 0.0 0.00 0.00 0.00 52 1006.3
20260507044037 49 0.0 0.0 0.00 0.00 0.00 54 1006.4
20260507043036 49 0.0 0.0 0.00 0.00 0.00 54 1006.5
20260507042017 49 0.0 0.0 0.00 0.00 0.00 52 1006.6
20260507041016 49 0.0 0.0 0.00 0.00 0.00 53 1006.6
20260507040016 48 0.0 0.0 0.00 0.00 0.00 52 1006.6
20260507035037 49 0.0 0.0 0.00 0.00 0.00 56 1006.8
20260507034017 49 0.0 0.0 0.00 0.00 0.00 52 1006.7
20260507033017 49 0.0 0.0 0.00 0.00 0.00 54 1006.7
20260507032017 49 0.0 0.0 0.00 0.00 0.00 54 1006.8
20260507031017 49 0.0 0.0 0.00 0.00 0.00 54 1006.8
20260507030017 49 0.0 0.0 0.00 0.00 0.00 54 1006.7
20260507025017 49 0.0 0.0 0.00 0.00 0.00 54 1006.6
20260507024017 49 0.0 0.0 0.00 0.00 0.00 52 1006.7
20260507023037 50 0.0 0.0 0.00 0.00 0.00 52 1006.7
20260507022017 50 0.0 0.0 0.00 0.00 0.00 51 1006.7
20260507021017 50 0.0 0.0 0.00 0.00 0.00 50 1006.6
20260507020017 51 0.0 0.0 0.00 0.00 0.00 50 1006.7
20260507015017 51 0.0 0.0 0.00 0.00 0.00 53 1006.7
20260507014017 51 0.0 0.0 0.00 0.00 0.00 52 1006.7
20260507013017 51 0.0 0.0 0.00 0.00 0.00 47 1006.8
20260507012017 52 0.0 0.0 0.00 0.00 0.00 47 1006.8
20260507011017 52 0.0 0.0 0.00 0.00 0.00 47 1006.9
20260507010017 52 0.0 0.0 0.00 0.00 0.00 46 1006.7
20260507005057 52 0.0 0.0 0.00 0.00 0.00 45 1006.6
20260507004017 53 0.0 0.0 0.00 0.00 0.00 44 1006.6
20260507003017 53 0.0 0.0 0.00 0.00 0.00 43 1006.4
20260507002017 53 0.0 0.0 0.00 0.00 0.00 43 1006.3
20260507001037 53 0.0 0.0 0.00 0.00 0.00 43 1006.2
20260507000017 54 0.0 0.0 0.00 0.00 0.00 43 1006.1
20260506235017 54 0.0 0.0 0.00 0.00 0.00 42 1006.0
20260506234056 54 0.0 0.0 0.00 0.00 0.00 41 1005.8
20260506233017 54 0.0 1.7 0.00 0.00 0.00 40 1005.8
20260506232017 55 0.0 1.7 0.00 0.00 0.00 40 1005.8
20260506231017 55 0.0 1.7 0.00 0.00 0.00 40 1005.7
20260506230037 55 0.0 1.7 0.00 0.00 0.00 40 1005.7
20260506225017 55 0.0 1.7 0.00 0.00 0.00 41 1005.7
20260506224017 55 0.0 0.9 0.00 0.00 0.00 39 1005.9
20260506223017 55 0.0 1.7 0.00 0.00 0.00 39 1005.8
20260506222017 56 293 0.9 2.6 0.00 0.00 0.00 38 1005.9
20260506221037 56 293 0.9 3.5 0.00 0.00 0.00 37 1005.9
20260506220017 56 270 0.9 2.6 0.00 0.00 0.00 36 1005.8
20260506215017 56 270 0.9 3.5 0.00 0.00 0.00 37 1005.9
20260506214017 56 270 0.9 2.6 0.00 0.00 0.00 36 1005.9
20260506213017 56 270 0.9 2.6 0.00 0.00 0.00 37 1005.7
20260506212017 56 293 0.9 2.6 0.00 0.00 0.00 35 1005.6
20260506211016 56 293 0.9 3.5 0.00 0.00 0.00 35 1005.5
20260506210016 56 270 1.7 3.5 0.00 0.00 0.00 35 1005.5
20260506205017 56 270 0.9 1.7 0.00 0.00 0.00 35 1005.6
20260506204017 57 0.0 1.7 0.00 0.00 0.00 35 1005.6
20260506203017 57 293 0.9 2.6 0.00 0.00 0.00 36 1005.7
20260506202017 56 0.0 0.0 0.00 0.00 0.00 37 1005.6
20260506201017 56 0.0 1.7 0.00 0.00 0.00 37 1005.6
20260506200017 56 0.0 0.0 0.00 0.00 0.00 37 1005.7
20260506195017 56 270 0.9 1.7 0.00 0.00 0.00 37 1005.7
20260506194017 56 270 0.9 5.2 0.00 0.00 0.00 38 1005.8
20260506193017 56 270 0.9 2.6 0.00 0.00 0.00 38 1005.8
20260506192057 56 270 2.6 7.0 0.00 0.00 0.00 34 1005.9
20260506191037 57 0.0 1.7 0.00 0.00 0.00 37 1006.0
20260506190018 57 0.0 1.7 0.00 0.00 0.00 37 1006.0
20260506185037 57 0.0 1.7 0.00 0.00 0.00 39 1006.0
20260506184017 56 0.0 0.0 0.00 0.00 0.00 37 1006.0
20260506183017 56 0.0 1.7 0.00 0.00 0.00 36 1006.0
20260506182017 56 225 0.9 2.6 0.00 0.00 0.00 39 1006.1
20260506181017 56 0.0 0.9 0.00 0.00 0.00 34 1006.2
20260506180037 56 270 2.6 7.0 0.00 0.00 0.00 35 1006.4
20260506175017 56 180 1.7 3.5 0.00 0.00 0.00 35 1006.5
20260506174017 56 293 2.6 5.2 0.00 0.00 0.00 36 1006.4
20260506173017 56 270 0.9 3.5 0.00 0.00 0.00 38 1006.6
20260506172017 56 225 0.9 1.7 0.00 0.00 0.00 37 1006.6
20260506171017 55 248 0.9 2.6 0.00 0.00 0.00 40 1006.6
20260506170057 55 0.0 0.9 0.00 0.00 0.00 41 1006.6
20260506165017 54 0.0 1.7 0.00 0.00 0.00 40 1006.6
20260506164017 54 338 0.9 3.5 0.00 0.00 0.00 38 1006.7
20260506163016 54 0.0 3.5 0.00 0.00 0.00 42 1007.0
20260506162057 54 180 0.9 3.5 0.00 0.00 0.00 40 1007.0
20260506161017 54 0.0 1.7 0.00 0.00 0.00 43 1007.1
20260506160017 53 180 0.9 1.7 0.00 0.02 0.00 43 1007.1
20260506155017 53 0.0 0.9 0.00 0.16 0.00 41 1007.2
20260506154057 53 0.0 0.0 0.00 0.20 0.00 46 1007.5
20260506153017 52 0.0 0.0 0.00 0.20 0.00 47 1007.8
20260506152037 52 0.0 0.9 0.00 0.21 0.00 46 1007.8
20260506151017 51 0.0 0.0 0.00 0.23 0.00 47 1007.9
20260506150016 50 0.0 0.0 0.00 0.23 0.00 51 1008.1
20260506145017 50 0.0 0.0 0.00 0.23 0.00 49 1008.1
20260506144037 49 0.0 0.0 0.00 0.23 0.00 52 1008.1
20260506143017 48 0.0 0.0 0.00 0.23 0.00 51 1007.9
20260506142037 48 0.0 0.0 0.00 0.23 0.00 52 1008.0
20260506141017 47 0.0 0.0 0.00 0.23 0.00 53 1007.9
20260506140017 47 0.0 0.0 0.00 0.23 0.00 51 1008.0
20260506135017 46 0.0 0.0 0.00 0.23 0.00 51 1007.9
20260506134017 46 0.0 0.0 0.00 0.24 0.00 55 1008.0
20260506133017 46 0.0 0.0 0.00 0.24 0.00 57 1008.0
20260506132017 45 0.0 0.0 0.00 0.24 0.00 59 1008.1
20260506131057 44 0.0 0.0 0.00 0.24 0.00 60 1008.0
20260506130017 44 0.0 0.0 0.00 0.24 0.00 62 1008.1
20260506125016 43 0.0 0.0 0.00 0.24 0.00 62 1008.0
20260506124017 43 0.0 0.0 0.00 0.24 0.00 61 1007.8
20260506123017 43 0.0 0.0 0.00 0.24 0.00 63 1007.9
20260506122016 42 0.0 0.0 0.00 0.24 0.00 65 1007.8
20260506121017 42 0.0 0.0 0.00 0.24 0.00 68 1007.8
20260506120017 41 0.0 0.0 0.00 0.24 0.00 69 1007.8
20260506115016 41 0.0 0.0 0.00 0.24 0.00 71 1007.8
20260506114017 40 0.0 0.0 0.00 0.24 0.00 73 1008.0
20260506113017 40 0.0 0.0 0.00 0.24 0.00 75 1008.0
20260506112017 40 0.0 0.0 0.00 0.24 0.00 75 1008.0
20260506111037 39 0.0 0.0 0.00 0.24 0.00 76 1007.9
20260506110017 39 0.0 0.0 0.00 0.24 0.00 74 1007.9
20260506105017 39 0.0 0.0 0.00 0.24 0.00 74 1007.9
20260506104016 38 0.0 0.0 0.00 0.24 0.00 75 1007.7
20260506103017 38 0.0 0.0 0.00 0.24 0.00 76 1007.5
20260506102017 38 0.0 0.0 0.00 0.24 0.00 76 1007.8
20260506101017 38 0.0 0.0 0.00 0.24 0.00 75 1007.8
20260506100017 38 0.0 0.0 0.00 0.24 0.00 74 1007.9
20260506095017 38 0.0 0.0 0.00 0.24 0.00 74 1007.9
20260506094017 39 0.0 0.0 0.00 0.24 0.00 74 1007.7
20260506093017 39 0.0 0.0 0.00 0.24 0.00 73 1007.4
20260506092017 39 0.0 0.0 0.00 0.24 0.00 72 1007.5
20260506091017 39 0.0 0.0 0.00 0.24 0.00 72 1007.7
20260506090017 39 0.0 0.0 0.00 0.24 0.00 72 1007.5
20260506085017 39 0.0 0.0 0.00 0.24 0.00 71 1007.5
20260506084017 40 0.0 0.0 0.00 0.24 0.00 70 1007.4
20260506083017 40 0.0 0.0 0.00 0.24 0.00 68 1007.4
20260506082017 40 0.0 0.0 0.00 0.24 0.00 68 1007.6
20260506081017 40 0.0 0.0 0.00 0.24 0.00 68 1007.6
20260506073017 41 0.0 0.0 0.00 0.24 0.00 62 1007.2
20260506072017 42 0.0 0.0 0.00 0.24 0.00 62 1007.3
20260506071017 42 0.0 0.0 0.00 0.24 0.00 62 1007.2
20260506062017 43 0.0 0.0 0.00 0.24 0.00 56 1007.2
20260506061037 43 0.0 0.0 0.00 0.24 0.00 57 1007.2